START_TIME,STEP,MOV.,M35,t_acc.,PL05,t_acc.,PL06,t_acc.,PL07,t_acc.
1979-07-20 15:00:23.670 ,0,0,0.,4.8,5.,4.8,8.,4.8,2.,4.8
1979-07-20 15:00:28.470 ,0,0,0.,4.8,6.,4.8,5.,4.8,1.,4.8
1979-07-20 15:00:33.270 ,0,0,0.,4.8,3.,4.8,3.,4.8,5.,4.8
1979-07-20 15:00:38.070 ,0,0,0.,4.8,9.,4.8,2.,4.8,3.,4.8
1979-07-20 15:00:42.870 ,0,0,0.,4.8,6.,4.8,5.,4.8,1.,4.8
1979-07-20 15:00:47.670 ,2,0,0.,4.8,6.,4.8,6.,4.8,1.,4.8
1979-07-20 15:00:52.470 ,2,0,0.,4.8,6.,4.8,4.,4.8,2.,4.8
1979-07-20 15:00:57.270 ,2,0,0.,4.8,7.,4.8,5.,4.8,2.,4.8
1979-07-20 15:01:02.070 ,2,0,0.,4.8,3.,4.8,3.,4.8,4.,4.8
1979-07-20 15:01:06.870 ,2,0,0.,4.8,9.,4.8,2.,4.8,1.,4.8
1979-07-20 15:01:11.670 ,2,0,0.,4.8,8.,4.8,7.,4.8,2.,4.8
1979-07-20 15:01:16.470 ,2,0,0.,4.8,6.,4.8,7.,4.8,1.,4.8
1979-07-20 15:01:21.270 ,2,0,0.,4.8,10.,4.8,4.,4.8,3.,4.8
1979-07-20 15:01:26.070 ,2,0,0.,4.8,5.,4.8,7.,4.8,3.,4.8
1979-07-20 15:01:30.870 ,2,0,0.,4.8,9.,4.8,5.,4.8,2.,4.8
1979-07-20 15:01:35.670 ,3,0,,0,,0,,0,,0
1979-07-20 15:01:40.470 ,3,0,0.,4.8,7.,4.8,2.,4.8,2.,4.8
1979-07-20 15:01:45.270 ,3,0,0.,4.8,6.,4.8,3.,4.8,2.,4.8
1979-07-20 15:01:50.070 ,3,0,0.,4.8,1.,4.8,3.,4.8,2.,4.8
1979-07-20 15:01:54.870 ,3,0,0.,4.8,6.,4.8,7.,4.8,1.,4.8
1979-07-20 15:01:59.670 ,3,0,0.,4.8,6.,4.8,5.,4.8,0.,4.8
1979-07-20 15:02:04.470 ,3,0,0.,4.8,5.,4.8,1.,4.8,2.,4.8
1979-07-20 15:02:09.270 ,3,0,0.,4.8,7.,4.8,6.,4.8,0.,4.8
1979-07-20 15:02:14.070 ,3,0,0.,4.8,10.,4.8,3.,4.8,3.,4.8
1979-07-20 15:02:18.870 ,3,0,0.,4.8,4.,4.8,4.,4.8,2.,4.8
1979-07-20 15:02:23.670 ,4,0,0.,4.8,5.,4.8,5.,4.8,1.,4.8
1979-07-20 15:02:28.470 ,4,0,0.,4.8,8.,4.8,4.,4.8,3.,4.8
1979-07-20 15:02:33.270 ,4,0,0.,4.8,6.,4.8,1.,4.8,1.,4.8
1979-07-20 15:02:38.070 ,4,0,0.,4.8,5.,4.8,6.,4.8,6.,4.8
1979-07-20 15:02:42.870 ,4,0,0.,4.8,8.,4.8,3.,4.8,0.,4.8
1979-07-20 15:02:47.670 ,4,0,0.,4.8,12.,4.8,5.,4.8,4.,4.8
1979-07-20 15:02:52.470 ,4,0,0.,4.8,7.,4.8,4.,4.8,6.,4.8
1979-07-20 15:02:57.270 ,4,0,0.,4.8,7.,4.8,5.,4.8,4.,4.8
1979-07-20 15:03:02.070 ,4,0,0.,4.8,3.,4.8,3.,4.8,1.,4.8
1979-07-20 15:03:06.870 ,4,0,0.,4.8,1.,4.8,5.,4.8,5.,4.8
1979-07-20 15:03:11.670 ,5,0,0.,4.8,7.,4.8,3.,4.8,3.,4.8
1979-07-20 15:03:16.470 ,5,0,0.,4.8,2.,4.8,3.,4.8,1.,4.8
1979-07-20 15:03:21.270 ,5,0,0.,4.8,4.,4.8,4.,4.8,7.,4.8
1979-07-20 15:03:26.070 ,5,0,0.,4.8,3.,4.8,6.,4.8,2.,4.8
1979-07-20 15:03:30.870 ,5,0,0.,4.8,4.,4.8,4.,4.8,3.,4.8
1979-07-20 15:03:35.670 ,5,0,0.,4.8,7.,4.8,4.,4.8,3.,4.8
1979-07-20 15:03:40.470 ,5,0,0.,4.8,8.,4.8,6.,4.8,1.,4.8
1979-07-20 15:03:45.270 ,5,0,0.,4.8,7.,4.8,2.,4.8,2.,4.8
1979-07-20 15:03:50.070 ,5,0,0.,4.8,8.,4.8,1.,4.8,0.,4.8
1979-07-20 15:03:54.870 ,5,0,0.,4.8,12.,4.8,4.,4.8,3.,4.8
1979-07-20 15:03:59.670 ,6,0,0.,4.8,8.,4.8,3.,4.8,0.,4.8
1979-07-20 15:04:04.470 ,6,0,0.,4.8,12.,4.8,4.,4.8,3.,4.8
1979-07-20 15:04:09.270 ,6,0,0.,4.8,9.,4.8,7.,4.8,1.,4.8
1979-07-20 15:04:14.070 ,6,0,0.,4.8,6.,4.8,5.,4.8,2.,4.8
1979-07-20 15:04:18.870 ,6,0,0.,4.8,9.,4.8,2.,4.8,4.,4.8
1979-07-20 15:04:23.670 ,6,0,0.,4.8,3.,4.8,5.,4.8,2.,4.8
1979-07-20 15:04:28.470 ,6,0,0.,4.8,6.,4.8,5.,4.8,6.,4.8
1979-07-20 15:04:33.270 ,6,0,0.,4.8,1.,4.8,3.,4.8,4.,4.8
1979-07-20 15:04:38.070 ,6,0,0.,4.8,6.,4.8,4.,4.8,3.,4.8
1979-07-20 15:04:42.870 ,6,0,0.,4.8,4.,4.8,5.,4.8,2.,4.8
1979-07-20 15:04:47.670 ,7,0,0.,4.8,7.,4.8,1.,4.8,0.,4.8
1979-07-20 15:04:52.470 ,7,0,0.,4.8,7.,4.8,4.,4.8,2.,4.8
1979-07-20 15:04:57.270 ,7,0,0.,4.8,1.,4.8,0.,4.8,0.,4.8
1979-07-20 15:05:02.070 ,7,0,0.,4.8,0.,4.8,0.,4.8,0.,4.8
1979-07-20 15:05:06.870 ,7,0,0.,4.8,0.,4.8,0.,4.8,0.,4.8
1979-07-20 15:05:11.670 ,7,0,0.,4.8,0.,4.8,0.,4.8,1.,4.8
1979-07-20 15:05:16.470 ,7,0,0.,4.8,1.,4.8,0.,4.8,0.,4.8
1979-07-20 15:05:21.270 ,7,0,0.,4.8,0.,4.8,0.,4.8,1.,4.8
1979-07-20 15:05:26.070 ,7,0,0.,4.8,0.,4.8,0.,4.8,0.,4.8
1979-07-20 15:05:30.870 ,7,0,0.,4.8,1.,4.8,0.,4.8,0.,4.8
1979-07-20 15:05:35.670 ,7,0,0.,4.8,1.,4.8,0.,4.8,0.,4.8
1979-07-20 15:05:40.470 ,7,0,0.,4.8,0.,4.8,1.,4.8,0.,4.8
1979-07-20 15:05:45.270 ,7,0,0.,4.8,1.,4.8,0.,4.8,0.,4.8
1979-07-20 15:05:50.070 ,7,0,0.,4.8,2.,4.8,1.,4.8,0.,4.8
1979-07-20 15:05:54.870 ,7,0,0.,4.8,0.,4.8,0.,4.8,1.,4.8
1979-07-20 15:05:59.670 ,7,0,0.,4.8,0.,4.8,0.,4.8,0.,4.8
1979-07-20 15:06:04.470 ,7,0,0.,4.8,1.,4.8,0.,4.8,0.,4.8
1979-07-20 15:06:09.270 ,7,0,0.,4.8,0.,4.8,0.,4.8,0.,4.8
1979-07-20 15:06:14.070 ,7,0,0.,4.8,0.,4.8,0.,4.8,0.,4.8
1979-07-20 15:06:18.870 ,7,0,0.,4.8,1.,4.8,1.,4.8,0.,4.8
1979-07-20 15:06:23.670 ,6,0,0.,4.8,0.,4.8,0.,4.8,0.,4.8
1979-07-20 15:06:28.470 ,6,0,0.,4.8,1.,4.8,0.,4.8,0.,4.8
1979-07-20 15:06:33.270 ,6,0,0.,4.8,10.,4.8,3.,4.8,4.,4.8
1979-07-20 15:06:38.070 ,6,0,0.,4.8,8.,4.8,2.,4.8,3.,4.8
1979-07-20 15:06:42.870 ,6,0,0.,4.8,8.,4.8,3.,4.8,4.,4.8
1979-07-20 15:06:47.670 ,6,0,0.,4.8,9.,4.8,4.,4.8,4.,4.8
1979-07-20 15:06:52.470 ,6,0,0.,4.8,5.,4.8,9.,4.8,5.,4.8
1979-07-20 15:06:57.270 ,6,0,0.,4.8,6.,4.8,5.,4.8,5.,4.8
1979-07-20 15:07:02.070 ,6,0,0.,4.8,4.,4.8,2.,4.8,5.,4.8
1979-07-20 15:07:06.870 ,6,0,0.,4.8,10.,4.8,3.,4.8,2.,4.8
1979-07-20 15:07:11.670 ,5,0,0.,4.8,8.,4.8,7.,4.8,7.,4.8
1979-07-20 15:07:16.470 ,5,0,0.,4.8,11.,4.8,4.,4.8,3.,4.8
1979-07-20 15:07:21.270 ,5,0,0.,4.8,5.,4.8,2.,4.8,2.,4.8
1979-07-20 15:07:26.070 ,5,0,0.,4.8,4.,4.8,9.,4.8,3.,4.8
1979-07-20 15:07:30.870 ,5,0,0.,4.8,9.,4.8,1.,4.8,2.,4.8
1979-07-20 15:07:35.670 ,5,0,0.,4.8,11.,4.8,4.,4.8,4.,4.8
1979-07-20 15:07:40.470 ,5,0,0.,4.8,5.,4.8,5.,4.8,3.,4.8
1979-07-20 15:07:45.270 ,5,0,0.,4.8,9.,4.8,5.,4.8,0.,4.8
1979-07-20 15:07:50.070 ,5,0,0.,4.8,10.,4.8,4.,4.8,2.,4.8
1979-07-20 15:07:54.870 ,5,0,0.,4.8,7.,4.8,9.,4.8,3.,4.8
1979-07-20 15:07:59.670 ,4,0,0.,4.8,6.,4.8,0.,4.8,4.,4.8
1979-07-20 15:08:04.470 ,4,0,0.,4.8,4.,4.8,2.,4.8,5.,4.8
1979-07-20 15:08:09.270 ,4,0,0.,4.8,7.,4.8,3.,4.8,4.,4.8
1979-07-20 15:08:14.070 ,4,0,0.,4.8,6.,4.8,3.,4.8,2.,4.8
1979-07-20 15:08:18.870 ,4,0,0.,4.8,7.,4.8,7.,4.8,1.,4.8
1979-07-20 15:08:23.670 ,4,0,0.,4.8,6.,4.8,3.,4.8,1.,4.8
1979-07-20 15:08:28.470 ,4,0,0.,4.8,7.,4.8,4.,4.8,5.,4.8
1979-07-20 15:08:33.270 ,4,0,0.,4.8,4.,4.8,6.,4.8,6.,4.8
1979-07-20 15:08:38.070 ,4,0,0.,4.8,5.,4.8,5.,4.8,3.,4.8
1979-07-20 15:08:42.870 ,4,0,0.,4.8,6.,4.8,3.,4.8,3.,4.8
1979-07-20 15:08:47.670 ,3,0,0.,4.8,2.,4.8,9.,4.8,2.,4.8
1979-07-20 15:08:52.470 ,3,0,0.,4.8,7.,4.8,3.,4.8,2.,4.8
1979-07-20 15:08:57.270 ,3,0,0.,4.8,8.,4.8,6.,4.8,3.,4.8
1979-07-20 15:09:02.070 ,3,0,0.,4.8,4.,4.8,4.,4.8,6.,4.8
1979-07-20 15:09:06.870 ,3,0,0.,4.8,5.,4.8,9.,4.8,4.,4.8
1979-07-20 15:09:11.670 ,3,0,0.,4.8,5.,4.8,3.,4.8,3.,4.8
1979-07-20 15:09:16.470 ,3,0,0.,4.8,10.,4.8,2.,4.8,0.,4.8
1979-07-20 15:09:21.270 ,3,0,0.,4.8,3.,4.8,1.,4.8,3.,4.8
1979-07-20 15:09:26.070 ,3,0,0.,4.8,9.,4.8,3.,4.8,7.,4.8
1979-07-20 15:09:30.870 ,3,0,0.,4.8,4.,4.8,2.,4.8,3.,4.8
1979-07-20 15:09:35.670 ,2,0,0.,4.8,3.,4.8,4.,4.8,1.,4.8
1979-07-20 15:09:40.470 ,2,0,0.,4.8,4.,4.8,5.,4.8,2.,4.8
1979-07-20 15:09:45.270 ,2,0,0.,4.8,9.,4.8,4.,4.8,0.,4.8
1979-07-20 15:09:50.070 ,2,0,0.,4.8,11.,4.8,3.,4.8,5.,4.8
1979-07-20 15:09:54.870 ,2,0,0.,4.8,9.,4.8,4.,4.8,1.,4.8
1979-07-20 15:09:59.670 ,2,0,0.,4.8,6.,4.8,4.,4.8,4.,4.8
1979-07-20 15:10:04.470 ,2,0,0.,4.8,8.,4.8,9.,4.8,0.,4.8
1979-07-20 15:10:09.270 ,2,0,0.,4.8,6.,4.8,3.,4.8,3.,4.8
1979-07-20 15:10:14.070 ,2,0,0.,4.8,8.,4.8,8.,4.8,2.,4.8
1979-07-20 15:10:18.870 ,2,0,0.,4.8,4.,4.8,3.,4.8,3.,4.8
1979-07-20 15:10:23.670 ,1,0,0.,4.8,7.,4.8,4.,4.8,3.,4.8
1979-07-20 15:10:28.470 ,1,0,0.,4.8,3.,4.8,3.,4.8,1.,4.8
1979-07-20 15:10:33.270 ,1,0,0.,4.8,14.,4.8,4.,4.8,1.,4.8
1979-07-20 15:10:38.070 ,1,0,0.,4.8,7.,4.8,2.,4.8,3.,4.8
1979-07-20 15:10:42.870 ,1,0,0.,4.8,3.,4.8,3.,4.8,2.,4.8
1979-07-20 15:10:47.670 ,1,0,0.,4.8,8.,4.8,3.,4.8,2.,4.8
1979-07-20 15:10:52.470 ,1,0,0.,4.8,4.,4.8,0.,4.8,2.,4.8
1979-07-20 15:10:57.270 ,1,0,0.,4.8,7.,4.8,7.,4.8,4.,4.8
1979-07-20 15:11:02.070 ,1,0,0.,4.8,8.,4.8,2.,4.8,3.,4.8
1979-07-20 15:11:06.870 ,1,0,0.,4.8,3.,4.8,2.,4.8,3.,4.8
1979-07-20 15:11:11.670 ,0,0,0.,4.8,6.,4.8,1.,4.8,3.,4.8
1979-07-20 15:11:16.470 ,0,0,0.,4.8,8.,4.8,7.,4.8,3.,4.8
1979-07-20 15:11:21.270 ,0,0,0.,4.8,11.,4.8,2.,4.8,0.,4.8
1979-07-20 15:11:26.070 ,0,0,0.,4.8,11.,4.8,1.,4.8,3.,4.8
1979-07-20 15:11:30.870 ,0,0,0.,4.8,3.,4.8,5.,4.8,6.,4.8
1979-07-20 15:11:35.670 ,0,0,0.,4.8,8.,4.8,4.,4.8,1.,4.8
1979-07-20 15:11:40.470 ,0,0,0.,4.8,8.,4.8,3.,4.8,1.,4.8
1979-07-20 15:11:45.270 ,0,0,0.,4.8,6.,4.8,3.,4.8,4.,4.8
1979-07-20 15:11:50.070 ,0,0,0.,4.8,7.,4.8,3.,4.8,0.,4.8
1979-07-20 15:11:54.870 ,0,0,,0,,0,,0,,0
1979-07-20 15:11:59.670 ,0,0,0.,4.8,6.,4.8,4.,4.8,1.,4.8
1979-07-20 15:12:04.470 ,0,0,0.,4.8,6.,4.8,3.,4.8,4.,4.8
1979-07-20 15:12:09.270 ,0,0,0.,4.8,11.,4.8,5.,4.8,3.,4.8
1979-07-20 15:12:14.070 ,0,0,0.,4.8,4.,4.8,3.,4.8,3.,4.8
1979-07-20 15:12:18.870 ,0,0,0.,4.8,11.,4.8,3.,4.8,1.,4.8
1979-07-20 15:12:23.670 ,0,0,0.,4.8,5.,4.8,4.,4.8,4.,4.8
1979-07-20 15:12:28.470 ,0,0,0.,4.8,7.,4.8,4.,4.8,5.,4.8
1979-07-20 15:12:33.270 ,0,0,0.,4.8,10.,4.8,5.,4.8,3.,4.8
1979-07-20 15:12:38.070 ,0,0,0.,4.8,6.,4.8,3.,4.8,1.,4.8
1979-07-20 15:12:42.870 ,0,0,0.,4.8,8.,4.8,3.,4.8,3.,4.8
1979-07-20 15:12:47.670 ,1,0,0.,4.8,6.,4.8,3.,4.8,3.,4.8
1979-07-20 15:12:52.470 ,1,0,0.,4.8,7.,4.8,5.,4.8,1.,4.8
1979-07-20 15:12:57.270 ,1,0,0.,4.8,2.,4.8,3.,4.8,3.,4.8
1979-07-20 15:13:02.070 ,1,0,0.,4.8,5.,4.8,4.,4.8,4.,4.8
1979-07-20 15:13:06.870 ,1,0,0.,4.8,6.,4.8,2.,4.8,4.,4.8
1979-07-20 15:13:11.670 ,1,0,0.,4.8,9.,4.8,3.,4.8,1.,4.8
1979-07-20 15:13:16.470 ,1,0,0.,4.8,12.,4.8,1.,4.8,1.,4.8
1979-07-20 15:13:21.270 ,1,0,0.,4.8,7.,4.8,6.,4.8,5.,4.8
1979-07-20 15:13:26.070 ,1,0,0.,4.8,4.,4.8,5.,4.8,6.,4.8
1979-07-20 15:13:30.870 ,1,0,0.,4.8,8.,4.8,4.,4.8,1.,4.8
1979-07-20 15:13:35.670 ,2,0,0.,4.8,14.,4.8,6.,4.8,5.,4.8
1979-07-20 15:13:40.470 ,2,0,0.,4.8,10.,4.8,6.,4.8,4.,4.8
1979-07-20 15:13:45.270 ,2,0,0.,4.8,7.,4.8,1.,4.8,4.,4.8
1979-07-20 15:13:50.070 ,2,0,0.,4.8,4.,4.8,7.,4.8,0.,4.8
1979-07-20 15:13:54.870 ,2,0,0.,4.8,5.,4.8,3.,4.8,1.,4.8
1979-07-20 15:13:59.670 ,2,0,0.,4.8,5.,4.8,4.,4.8,2.,4.8
1979-07-20 15:14:04.470 ,2,0,0.,4.8,7.,4.8,1.,4.8,2.,4.8
1979-07-20 15:14:09.270 ,2,0,0.,4.8,9.,4.8,3.,4.8,6.,4.8
1979-07-20 15:14:14.070 ,2,0,0.,4.8,7.,4.8,4.,4.8,2.,4.8
1979-07-20 15:14:18.870 ,2,0,0.,4.8,6.,4.8,5.,4.8,3.,4.8
1979-07-20 15:14:23.670 ,3,0,0.,4.8,8.,4.8,8.,4.8,3.,4.8
1979-07-20 15:14:28.470 ,3,0,0.,4.8,7.,4.8,3.,4.8,1.,4.8
1979-07-20 15:14:33.270 ,3,0,0.,4.8,10.,4.8,3.,4.8,5.,4.8
1979-07-20 15:14:38.070 ,3,0,0.,4.8,10.,4.8,3.,4.8,2.,4.8
1979-07-20 15:14:42.870 ,3,0,0.,4.8,6.,4.8,2.,4.8,4.,4.8
1979-07-20 15:14:47.670 ,3,0,0.,4.8,6.,4.8,8.,4.8,3.,4.8
1979-07-20 15:14:52.470 ,3,0,0.,4.8,6.,4.8,5.,4.8,1.,4.8
1979-07-20 15:14:57.270 ,3,0,0.,4.8,4.,4.8,5.,4.8,2.,4.8
1979-07-20 15:15:02.070 ,3,0,0.,4.8,7.,4.8,2.,4.8,1.,4.8
1979-07-20 15:15:06.870 ,3,0,0.,4.8,10.,4.8,6.,4.8,0.,4.8
1979-07-20 15:15:11.670 ,4,0,0.,4.8,8.,4.8,3.,4.8,1.,4.8
1979-07-20 15:15:16.470 ,4,0,0.,4.8,9.,4.8,2.,4.8,3.,4.8
1979-07-20 15:15:21.270 ,4,0,0.,4.8,8.,4.8,5.,4.8,8.,4.8
1979-07-20 15:15:26.070 ,4,0,0.,4.8,9.,4.8,7.,4.8,3.,4.8
1979-07-20 15:15:30.870 ,4,0,0.,4.8,3.,4.8,5.,4.8,1.,4.8
1979-07-20 15:15:35.670 ,4,0,0.,4.8,8.,4.8,4.,4.8,2.,4.8
1979-07-20 15:15:40.470 ,4,0,0.,4.8,8.,4.8,7.,4.8,4.,4.8
1979-07-20 15:15:45.270 ,4,0,0.,4.8,6.,4.8,3.,4.8,4.,4.8
1979-07-20 15:15:50.070 ,4,0,0.,4.8,6.,4.8,3.,4.8,2.,4.8
1979-07-20 15:15:54.870 ,4,0,0.,4.8,7.,4.8,4.,4.8,3.,4.8
1979-07-20 15:15:59.670 ,5,0,0.,4.8,16.,4.8,7.,4.8,3.,4.8
1979-07-20 15:16:04.470 ,5,0,0.,4.8,8.,4.8,3.,4.8,4.,4.8
1979-07-20 15:16:09.270 ,5,0,0.,4.8,9.,4.8,7.,4.8,4.,4.8
1979-07-20 15:16:14.070 ,5,0,0.,4.8,8.,4.8,4.,4.8,3.,4.8
1979-07-20 15:16:18.870 ,5,0,0.,4.8,13.,4.8,2.,4.8,3.,4.8
1979-07-20 15:16:23.670 ,5,0,0.,4.8,8.,4.8,3.,4.8,4.,4.8
1979-07-20 15:16:28.470 ,5,0,0.,4.8,4.,4.8,5.,4.8,2.,4.8
1979-07-20 15:16:33.270 ,5,0,0.,4.8,3.,4.8,7.,4.8,4.,4.8
1979-07-20 15:16:38.070 ,5,0,0.,4.8,5.,4.8,6.,4.8,2.,4.8
1979-07-20 15:16:42.870 ,5,0,0.,4.8,5.,4.8,6.,4.8,3.,4.8
1979-07-20 15:16:47.670 ,6,0,0.,4.8,5.,4.8,4.,4.8,5.,4.8
1979-07-20 15:16:52.470 ,6,0,0.,4.8,7.,4.8,3.,4.8,4.,4.8
1979-07-20 15:16:57.270 ,6,0,0.,4.8,5.,4.8,2.,4.8,2.,4.8
1979-07-20 15:17:02.070 ,6,0,0.,4.8,8.,4.8,9.,4.8,5.,4.8
1979-07-20 15:17:06.860 ,6,0,0.,4.8,2.,4.8,3.,4.8,3.,4.8
1979-07-20 15:17:11.670 ,6,0,0.,4.8,9.,4.8,1.,4.8,3.,4.8
1979-07-20 15:17:16.460 ,6,0,0.,4.8,7.,4.8,3.,4.8,3.,4.8
1979-07-20 15:17:21.270 ,6,0,0.,4.8,8.,4.8,5.,4.8,5.,4.8
1979-07-20 15:17:26.070 ,6,0,,0,,0,,0,,0
1979-07-20 15:17:30.860 ,6,0,0.,4.8,8.,4.8,8.,4.8,3.,4.8
1979-07-20 15:17:35.670 ,7,0,0.,4.8,8.,4.8,7.,4.8,3.,4.8
1979-07-20 15:17:40.460 ,7,0,0.,4.8,5.,4.8,3.,4.8,3.,4.8
1979-07-20 15:17:45.270 ,7,0,0.,4.8,0.,4.8,0.,4.8,0.,4.8
1979-07-20 15:17:50.070 ,7,0,0.,4.8,0.,4.8,0.,4.8,0.,4.8
1979-07-20 15:17:54.860 ,7,0,0.,4.8,0.,4.8,0.,4.8,1.,4.8
1979-07-20 15:17:59.670 ,7,0,0.,4.8,0.,4.8,0.,4.8,0.,4.8
1979-07-20 15:18:04.460 ,7,0,0.,4.8,0.,4.8,0.,4.8,0.,4.8
1979-07-20 15:18:09.270 ,7,0,0.,4.8,1.,4.8,0.,4.8,0.,4.8
1979-07-20 15:18:14.070 ,7,0,0.,4.8,0.,4.8,0.,4.8,0.,4.8
1979-07-20 15:18:18.860 ,7,0,0.,4.8,0.,4.8,0.,4.8,0.,4.8
1979-07-20 15:18:23.670 ,0,0,0.,4.8,0.,4.8,0.,4.8,0.,4.8
1979-07-20 15:18:28.460 ,0,0,0.,4.8,0.,4.8,0.,4.8,0.,4.8
1979-07-20 15:18:33.270 ,0,0,0.,4.8,0.,4.8,0.,4.8,0.,4.8
1979-07-20 15:18:38.070 ,0,0,0.,4.8,0.,4.8,0.,4.8,0.,4.8
1979-07-20 15:18:42.860 ,0,0,,0,,0,,0,,0
1979-07-20 15:18:47.670 ,0,0,0.,4.8,0.,4.8,0.,4.8,0.,4.8
1979-07-20 15:18:52.460 ,0,0,,0,,0,,0,,0
1979-07-20 15:18:57.270 ,0,0,0.,4.8,1.,4.8,0.,4.8,2.,4.8
1979-07-20 15:19:02.070 ,0,0,0.,4.8,0.,4.8,0.,4.8,1.,4.8
1979-07-20 15:19:06.860 ,0,0,0.,4.8,2.,4.8,0.,4.8,0.,4.8
1979-07-20 15:19:11.670 ,6,0,,0,,0,,0,,0
1979-07-20 15:19:16.460 ,6,0,0.,4.8,0.,4.8,2.,4.8,0.,4.8
1979-07-20 15:19:21.270 ,6,0,0.,4.8,5.,4.8,3.,4.8,2.,4.8
1979-07-20 15:19:26.070 ,6,0,,0,,0,,0,,0
1979-07-20 15:19:30.860 ,6,0,0.,4.8,13.,4.8,3.,4.8,2.,4.8
1979-07-20 15:19:35.670 ,0,0,0.,4.8,9.,4.8,3.,4.8,3.,4.8
1979-07-20 15:19:40.460 ,0,0,0.,4.8,8.,4.8,5.,4.8,1.,4.8
1979-07-20 15:19:45.270 ,0,0,0.,4.8,7.,4.8,5.,4.8,2.,4.8
1979-07-20 15:19:50.070 ,0,0,,0,,0,,0,,0
1979-07-20 15:19:54.860 ,0,0,,0,,0,,0,,0
1979-07-20 15:20:00.860 ,5,0,0.,4.8,9.,4.8,3.,4.8,0.,4.8
1979-07-20 15:20:05.660 ,5,0,,0,,0,,0,,0
1979-07-20 15:20:10.460 ,5,0,0.,4.8,7.,4.8,6.,4.8,6.,4.8
1979-07-20 15:20:15.270 ,5,0,0.,4.8,7.,4.8,4.,4.8,3.,4.8
1979-07-20 15:20:20.060 ,5,0,0.,4.8,7.,4.8,1.,4.8,2.,4.8
1979-07-20 15:20:23.670 ,5,0,0.,4.8,5.,4.8,5.,4.8,3.,4.8
1979-07-20 15:20:28.460 ,5,0,0.,4.8,9.,4.8,7.,4.8,6.,4.8
1979-07-20 15:20:33.270 ,5,0,0.,4.8,12.,4.8,5.,4.8,3.,4.8
1979-07-20 15:20:38.070 ,5,0,0.,4.8,11.,4.8,6.,4.8,4.,4.8
1979-07-20 15:20:42.860 ,5,0,0.,4.8,5.,4.8,5.,4.8,2.,4.8
1979-07-20 15:20:47.670 ,4,0,0.,4.8,10.,4.8,3.,4.8,0.,4.8
1979-07-20 15:20:52.460 ,4,0,0.,4.8,8.,4.8,4.,4.8,5.,4.8
1979-07-20 15:20:57.270 ,4,0,0.,4.8,7.,4.8,7.,4.8,6.,4.8
1979-07-20 15:21:02.070 ,4,0,0.,4.8,7.,4.8,2.,4.8,1.,4.8
1979-07-20 15:21:06.860 ,4,0,0.,4.8,5.,4.8,3.,4.8,5.,4.8
1979-07-20 15:21:11.670 ,4,0,0.,4.8,5.,4.8,4.,4.8,4.,4.8
1979-07-20 15:21:16.460 ,4,0,0.,4.8,8.,4.8,2.,4.8,4.,4.8
1979-07-20 15:21:21.270 ,4,0,0.,4.8,8.,4.8,3.,4.8,2.,4.8
1979-07-20 15:21:26.070 ,4,0,0.,4.8,3.,4.8,5.,4.8,3.,4.8
1979-07-20 15:21:30.860 ,4,0,0.,4.8,4.,4.8,1.,4.8,2.,4.8
1979-07-20 15:21:35.670 ,3,0,0.,4.8,8.,4.8,4.,4.8,3.,4.8
1979-07-20 15:21:40.460 ,3,0,0.,4.8,7.,4.8,3.,4.8,4.,4.8
1979-07-20 15:21:45.270 ,3,0,0.,4.8,7.,4.8,5.,4.8,5.,4.8
1979-07-20 15:21:50.070 ,3,0,0.,4.8,8.,4.8,1.,4.8,2.,4.8
1979-07-20 15:21:54.860 ,3,0,0.,4.8,10.,4.8,3.,4.8,4.,4.8
1979-07-20 15:21:59.670 ,3,0,0.,4.8,7.,4.8,7.,4.8,3.,4.8
1979-07-20 15:22:04.460 ,3,0,0.,4.8,8.,4.8,4.,4.8,3.,4.8
1979-07-20 15:22:09.270 ,3,0,0.,4.8,8.,4.8,2.,4.8,2.,4.8
1979-07-20 15:22:14.070 ,3,0,0.,4.8,7.,4.8,6.,4.8,2.,4.8
1979-07-20 15:22:18.860 ,3,0,0.,4.8,8.,4.8,3.,4.8,1.,4.8
1979-07-20 15:22:23.670 ,2,0,0.,4.8,9.,4.8,6.,4.8,4.,4.8
1979-07-20 15:22:28.460 ,2,0,0.,4.8,8.,4.8,5.,4.8,3.,4.8
1979-07-20 15:22:33.270 ,2,0,0.,4.8,8.,4.8,4.,4.8,3.,4.8
1979-07-20 15:22:38.070 ,2,0,0.,4.8,9.,4.8,2.,4.8,3.,4.8
1979-07-20 15:22:42.860 ,2,0,0.,4.8,6.,4.8,3.,4.8,1.,4.8
1979-07-20 15:22:47.670 ,2,0,0.,4.8,6.,4.8,2.,4.8,3.,4.8
1979-07-20 15:22:52.460 ,2,0,0.,4.8,5.,4.8,2.,4.8,0.,4.8
1979-07-20 15:22:57.270 ,2,0,0.,4.8,5.,4.8,0.,4.8,0.,4.8
1979-07-20 15:23:02.070 ,2,0,0.,4.8,9.,4.8,3.,4.8,3.,4.8
1979-07-20 15:23:06.860 ,2,0,0.,4.8,8.,4.8,1.,4.8,1.,4.8
1979-07-20 15:23:11.670 ,1,0,0.,4.8,4.,4.8,4.,4.8,2.,4.8
1979-07-20 15:23:16.460 ,1,0,0.,4.8,6.,4.8,3.,4.8,4.,4.8
1979-07-20 15:23:21.270 ,1,0,0.,4.8,5.,4.8,6.,4.8,2.,4.8
1979-07-20 15:23:26.070 ,1,0,0.,4.8,6.,4.8,4.,4.8,5.,4.8
1979-07-20 15:23:30.860 ,1,0,0.,4.8,10.,4.8,4.,4.8,1.,4.8
1979-07-20 15:23:35.670 ,1,0,0.,4.8,14.,4.8,3.,4.8,2.,4.8
1979-07-20 15:23:40.460 ,1,0,0.,4.8,8.,4.8,5.,4.8,2.,4.8
1979-07-20 15:23:45.270 ,1,0,0.,4.8,3.,4.8,2.,4.8,2.,4.8
1979-07-20 15:23:50.070 ,1,0,0.,4.8,7.,4.8,5.,4.8,2.,4.8
1979-07-20 15:23:54.860 ,1,0,0.,4.8,12.,4.8,1.,4.8,3.,4.8
1979-07-20 15:23:59.670 ,0,0,0.,4.8,5.,4.8,2.,4.8,6.,4.8
1979-07-20 15:24:04.460 ,0,0,0.,4.8,11.,4.8,1.,4.8,2.,4.8
1979-07-20 15:24:09.270 ,0,0,0.,4.8,4.,4.8,3.,4.8,2.,4.8
1979-07-20 15:24:14.070 ,0,0,0.,4.8,4.,4.8,4.,4.8,2.,4.8
1979-07-20 15:24:18.860 ,0,0,0.,4.8,7.,4.8,3.,4.8,1.,4.8
1979-07-20 15:24:23.670 ,0,0,0.,4.8,6.,4.8,2.,4.8,5.,4.8
1979-07-20 15:24:28.460 ,0,0,0.,4.8,12.,4.8,4.,4.8,2.,4.8
1979-07-20 15:24:33.270 ,0,0,0.,4.8,8.,4.8,4.,4.8,1.,4.8
1979-07-20 15:24:38.070 ,0,0,0.,4.8,6.,4.8,5.,4.8,4.,4.8
1979-07-20 15:24:42.860 ,0,0,0.,4.8,5.,4.8,3.,4.8,2.,4.8
1979-07-20 15:24:47.670 ,0,0,0.,4.8,8.,4.8,7.,4.8,4.,4.8
1979-07-20 15:24:52.460 ,0,0,0.,4.8,8.,4.8,4.,4.8,3.,4.8
1979-07-20 15:24:57.270 ,0,0,0.,4.8,6.,4.8,6.,4.8,2.,4.8
1979-07-20 15:25:02.070 ,0,0,0.,4.8,5.,4.8,2.,4.8,2.,4.8
1979-07-20 15:25:06.860 ,0,0,0.,4.8,5.,4.8,4.,4.8,4.,4.8
1979-07-20 15:25:11.670 ,0,0,0.,4.8,10.,4.8,1.,4.8,7.,4.8
1979-07-20 15:25:16.460 ,0,0,0.,4.8,8.,4.8,5.,4.8,1.,4.8
1979-07-20 15:25:21.270 ,0,0,0.,4.8,5.,4.8,1.,4.8,3.,4.8
1979-07-20 15:25:26.070 ,0,0,0.,4.8,9.,4.8,4.,4.8,4.,4.8
1979-07-20 15:25:30.860 ,0,0,0.,4.8,1.,4.8,4.,4.8,1.,4.8
1979-07-20 15:25:35.670 ,1,0,0.,4.8,2.,4.8,3.,4.8,3.,4.8
1979-07-20 15:25:40.460 ,1,0,0.,4.8,5.,4.8,2.,4.8,4.,4.8
1979-07-20 15:25:45.270 ,1,0,0.,4.8,5.,4.8,4.,4.8,2.,4.8
1979-07-20 15:25:50.070 ,1,0,0.,4.8,8.,4.8,2.,4.8,1.,4.8
1979-07-20 15:25:54.860 ,1,0,0.,4.8,6.,4.8,6.,4.8,2.,4.8
1979-07-20 15:25:59.670 ,1,0,0.,4.8,5.,4.8,3.,4.8,2.,4.8
1979-07-20 15:26:04.460 ,1,0,0.,4.8,4.,4.8,3.,4.8,2.,4.8
1979-07-20 15:26:09.270 ,1,0,0.,4.8,11.,4.8,3.,4.8,1.,4.8
1979-07-20 15:26:14.070 ,1,0,0.,4.8,10.,4.8,7.,4.8,6.,4.8
1979-07-20 15:26:18.860 ,1,0,0.,4.8,5.,4.8,5.,4.8,1.,4.8
1979-07-20 15:26:23.670 ,2,0,0.,4.8,5.,4.8,3.,4.8,3.,4.8
1979-07-20 15:26:28.460 ,2,0,0.,4.8,3.,4.8,3.,4.8,2.,4.8
1979-07-20 15:26:33.270 ,2,0,0.,4.8,5.,4.8,2.,4.8,1.,4.8
1979-07-20 15:26:38.070 ,2,0,0.,4.8,7.,4.8,1.,4.8,3.,4.8
1979-07-20 15:26:42.860 ,2,0,0.,4.8,4.,4.8,1.,4.8,2.,4.8
1979-07-20 15:26:47.670 ,2,0,0.,4.8,5.,4.8,5.,4.8,3.,4.8
1979-07-20 15:26:52.460 ,2,0,0.,4.8,3.,4.8,1.,4.8,1.,4.8
1979-07-20 15:26:57.270 ,2,0,0.,4.8,3.,4.8,0.,4.8,1.,4.8
1979-07-20 15:27:02.070 ,2,0,0.,4.8,9.,4.8,2.,4.8,4.,4.8
1979-07-20 15:27:06.860 ,2,0,0.,4.8,7.,4.8,7.,4.8,1.,4.8
1979-07-20 15:27:11.670 ,3,0,0.,4.8,8.,4.8,5.,4.8,1.,4.8
1979-07-20 15:27:16.460 ,3,0,0.,4.8,4.,4.8,5.,4.8,2.,4.8
1979-07-20 15:27:21.270 ,3,0,0.,4.8,5.,4.8,4.,4.8,3.,4.8
1979-07-20 15:27:26.070 ,3,0,0.,4.8,5.,4.8,4.,4.8,2.,4.8
1979-07-20 15:27:30.860 ,3,0,0.,4.8,8.,4.8,3.,4.8,1.,4.8
1979-07-20 15:27:35.670 ,3,0,0.,4.8,4.,4.8,4.,4.8,2.,4.8
1979-07-20 15:27:40.460 ,3,0,0.,4.8,5.,4.8,2.,4.8,2.,4.8
1979-07-20 15:27:45.270 ,3,0,0.,4.8,9.,4.8,4.,4.8,3.,4.8
1979-07-20 15:27:50.070 ,3,0,0.,4.8,5.,4.8,4.,4.8,2.,4.8
1979-07-20 15:27:54.860 ,3,0,0.,4.8,7.,4.8,4.,4.8,3.,4.8
1979-07-20 15:27:59.670 ,4,0,0.,4.8,4.,4.8,3.,4.8,2.,4.8
1979-07-20 15:28:04.460 ,4,0,0.,4.8,5.,4.8,6.,4.8,2.,4.8
1979-07-20 15:28:09.270 ,4,0,0.,4.8,6.,4.8,5.,4.8,4.,4.8
1979-07-20 15:28:14.070 ,4,0,0.,4.8,4.,4.8,5.,4.8,4.,4.8
1979-07-20 15:28:18.860 ,4,0,0.,4.8,11.,4.8,6.,4.8,1.,4.8
1979-07-20 15:28:23.670 ,4,0,0.,4.8,5.,4.8,2.,4.8,3.,4.8
1979-07-20 15:28:28.460 ,4,0,0.,4.8,9.,4.8,5.,4.8,2.,4.8
1979-07-20 15:28:33.270 ,4,0,0.,4.8,6.,4.8,4.,4.8,0.,4.8
1979-07-20 15:28:38.070 ,4,0,0.,4.8,4.,4.8,8.,4.8,1.,4.8
1979-07-20 15:28:42.860 ,4,0,0.,4.8,10.,4.8,2.,4.8,3.,4.8
1979-07-20 15:28:47.670 ,5,0,0.,4.8,6.,4.8,5.,4.8,2.,4.8
1979-07-20 15:28:52.460 ,5,0,0.,4.8,2.,4.8,2.,4.8,3.,4.8
1979-07-20 15:28:57.270 ,5,0,0.,4.8,4.,4.8,3.,4.8,1.,4.8
1979-07-20 15:29:02.070 ,5,0,0.,4.8,6.,4.8,2.,4.8,2.,4.8
1979-07-20 15:29:06.860 ,5,0,0.,4.8,6.,4.8,4.,4.8,2.,4.8
1979-07-20 15:29:11.670 ,5,0,0.,4.8,6.,4.8,7.,4.8,1.,4.8
1979-07-20 15:29:16.460 ,5,0,0.,4.8,7.,4.8,4.,4.8,4.,4.8
1979-07-20 15:29:21.270 ,5,0,0.,4.8,7.,4.8,3.,4.8,2.,4.8
1979-07-20 15:29:26.070 ,5,0,0.,4.8,9.,4.8,7.,4.8,1.,4.8
1979-07-20 15:29:30.860 ,5,0,0.,4.8,7.,4.8,6.,4.8,1.,4.8
1979-07-20 15:29:35.670 ,6,0,0.,4.8,13.,4.8,4.,4.8,4.,4.8
1979-07-20 15:29:40.460 ,6,0,0.,4.8,8.,4.8,2.,4.8,4.,4.8
1979-07-20 15:29:45.270 ,6,0,0.,4.8,4.,4.8,7.,4.8,3.,4.8
1979-07-20 15:29:50.070 ,6,0,0.,4.8,7.,4.8,7.,4.8,3.,4.8
1979-07-20 15:29:54.860 ,6,0,0.,4.8,3.,4.8,3.,4.8,4.,4.8
1979-07-20 15:29:59.670 ,6,0,0.,4.8,6.,4.8,4.,4.8,0.,4.8
1979-07-20 15:30:04.460 ,6,0,0.,4.8,7.,4.8,7.,4.8,0.,4.8
1979-07-20 15:30:09.270 ,6,0,0.,4.8,11.,4.8,7.,4.8,5.,4.8
1979-07-20 15:30:14.070 ,6,0,0.,4.8,12.,4.8,5.,4.8,2.,4.8
1979-07-20 15:30:18.860 ,6,0,0.,4.8,11.,4.8,6.,4.8,2.,4.8
1979-07-20 15:30:23.670 ,7,0,0.,4.8,9.,4.8,4.,4.8,3.,4.8
1979-07-20 15:30:28.460 ,7,0,0.,4.8,6.,4.8,6.,4.8,2.,4.8
1979-07-20 15:30:33.270 ,7,0,0.,4.8,0.,4.8,0.,4.8,0.,4.8
1979-07-20 15:30:38.070 ,7,0,0.,4.8,0.,4.8,0.,4.8,0.,4.8
1979-07-20 15:30:42.860 ,7,0,0.,4.8,0.,4.8,0.,4.8,1.,4.8
1979-07-20 15:30:47.670 ,7,0,0.,4.8,0.,4.8,0.,4.8,0.,4.8
1979-07-20 15:30:52.460 ,7,0,0.,4.8,0.,4.8,0.,4.8,0.,4.8
1979-07-20 15:30:57.270 ,7,0,0.,4.8,0.,4.8,0.,4.8,0.,4.8
1979-07-20 15:31:02.070 ,7,0,0.,4.8,1.,4.8,0.,4.8,1.,4.8
1979-07-20 15:31:06.860 ,7,0,0.,4.8,0.,4.8,0.,4.8,0.,4.8
1979-07-20 15:31:11.670 ,3,1,0.,4.8,4.,4.8,0.,4.8,2.,4.8
1979-07-20 15:31:16.460 ,3,1,0.,4.8,10.,4.8,3.,4.8,3.,4.8
1979-07-20 15:31:21.270 ,3,1,0.,4.8,10.,4.8,3.,4.8,1.,4.8
1979-07-20 15:31:26.070 ,3,1,0.,4.8,2.,4.8,1.,4.8,3.,4.8
1979-07-20 15:31:30.860 ,3,1,0.,4.8,5.,4.8,5.,4.8,2.,4.8
1979-07-20 15:31:35.670 ,0,1,0.,4.8,8.,4.8,3.,4.8,2.,4.8
1979-07-20 15:31:40.460 ,0,1,0.,4.8,5.,4.8,3.,4.8,2.,4.8
1979-07-20 15:31:45.270 ,0,1,0.,4.8,5.,4.8,0.,4.8,1.,4.8
1979-07-20 15:31:50.070 ,0,1,0.,4.8,5.,4.8,0.,4.8,0.,4.8
1979-07-20 15:31:54.860 ,0,1,0.,4.8,3.,4.8,2.,4.8,0.,4.8
1979-07-20 15:31:59.670 ,4,1,0.,4.8,6.,4.8,1.,4.8,1.,4.8
1979-07-20 15:32:04.460 ,4,1,0.,4.8,10.,4.8,2.,4.8,3.,4.8
1979-07-20 15:32:09.270 ,4,1,0.,4.8,12.,4.8,2.,4.8,3.,4.8
1979-07-20 15:32:14.070 ,4,1,0.,4.8,4.,4.8,1.,4.8,1.,4.8
1979-07-20 15:32:18.860 ,4,1,0.,4.8,4.,4.8,2.,4.8,1.,4.8
1979-07-20 15:32:23.670 ,7,1,0.,4.8,5.,4.8,4.,4.8,3.,4.8
1979-07-20 15:32:28.460 ,7,1,0.,4.8,8.,4.8,5.,4.8,1.,4.8
1979-07-20 15:32:33.270 ,7,1,0.,4.8,7.,4.8,5.,4.8,4.,4.8
1979-07-20 15:32:38.070 ,7,1,0.,4.8,1.,4.8,1.,4.8,0.,4.8
1979-07-20 15:32:42.860 ,7,1,0.,4.8,0.,4.8,0.,4.8,0.,4.8
1979-07-20 15:32:47.670 ,3,1,0.,4.8,1.,4.8,0.,4.8,0.,4.8
1979-07-20 15:32:52.460 ,3,1,0.,4.8,3.,4.8,2.,4.8,1.,4.8
1979-07-20 15:32:57.270 ,3,1,0.,4.8,9.,4.8,5.,4.8,1.,4.8
1979-07-20 15:33:02.070 ,3,1,0.,4.8,3.,4.8,1.,4.8,4.,4.8
1979-07-20 15:33:06.860 ,3,1,0.,4.8,7.,4.8,5.,4.8,1.,4.8
1979-07-20 15:33:11.670 ,0,1,0.,4.8,3.,4.8,2.,4.8,2.,4.8
1979-07-20 15:33:16.460 ,0,1,0.,4.8,5.,4.8,4.,4.8,2.,4.8
1979-07-20 15:33:21.270 ,0,1,0.,4.8,9.,4.8,2.,4.8,2.,4.8
1979-07-20 15:33:26.070 ,0,1,0.,4.8,4.,4.8,5.,4.8,4.,4.8